Time,TemperatureF,DewpointF,PressureIn,WindDirection,WindDirectionDegrees,WindSpeedMPH,WindSpeedGustMPH,Humidity,HourlyPrecipIn,Conditions,Clouds,dailyrainin,SoftwareType,DateUTC
2013-10-03 15:34:00,72.1,68.4,29.70,South,169,4.0,-999.0,88,-99.99,,,0.00,meteohub,2013-10-03 19:34:00,
2013-10-03 15:35:00,72.1,68.4,29.70,South,177,4.0,-999.0,88,-99.99,,,0.00,meteohub,2013-10-03 19:35:00,
2013-10-03 15:36:00,72.1,68.0,29.70,SSE,148,2.0,-999.0,87,-99.99,,,0.00,meteohub,2013-10-03 19:36:00,
2013-10-03 15:37:00,72.1,68.4,29.70,SSE,164,8.0,-999.0,88,-99.99,,,0.00,meteohub,2013-10-03 19:37:00,
2013-10-03 15:39:00,72.3,68.2,29.70,South,181,2.0,-999.0,87,-99.99,,,0.00,meteohub,2013-10-03 19:39:00,
2013-10-03 15:44:00,72.3,68.5,29.71,SW,225,3.0,8.0,88,0.00,,,0.00,meteohub,2013-10-03 19:44:00,
2013-10-03 15:47:00,72.3,68.2,29.71,WSW,250,3.0,8.0,87,0.00,,,0.00,meteohub,2013-10-03 19:47:00,
2013-10-03 15:52:00,72.3,68.2,29.71,SSW,211,4.0,8.0,87,0.00,,,0.00,meteohub,2013-10-03 19:52:00,
2013-10-03 15:57:00,72.7,68.2,29.71,West,267,0.0,7.0,86,0.00,,,0.00,meteohub,2013-10-03 19:57:00,
2013-10-03 16:02:00,73.0,68.2,29.71,West,259,6.0,6.0,85,0.00,,,0.00,meteohub,2013-10-03 20:02:00,
2013-10-03 16:07:00,73.2,68.2,29.70,SSW,210,5.0,9.0,84,0.00,,,0.00,meteohub,2013-10-03 20:07:00,
2013-10-03 16:13:00,73.2,68.2,30.00,WSW,245,6.0,11.0,84,0.00,,,0.00,meteohub,2013-10-03 20:13:00,
2013-10-03 16:18:00,73.4,68.0,29.91,SW,231,4.0,11.0,83,0.00,,,0.00,meteohub,2013-10-03 20:18:00,
2013-10-03 16:23:00,73.6,68.2,29.91,SW,217,6.0,11.0,83,0.00,,,0.00,meteohub,2013-10-03 20:23:00,
2013-10-03 16:28:00,73.6,68.2,29.91,SSW,208,9.0,12.0,83,0.00,,,0.00,meteohub,2013-10-03 20:28:00,
2013-10-03 16:33:00,73.6,67.8,29.91,WSW,250,9.0,12.0,82,0.00,,,0.00,meteohub,2013-10-03 20:33:00,
2013-10-03 16:38:00,73.2,67.5,29.91,West,270,6.0,13.0,82,0.00,,,0.00,meteohub,2013-10-03 20:38:00,
2013-10-03 16:43:00,73.0,67.6,29.91,SW,233,7.0,13.0,83,0.00,,,0.00,meteohub,2013-10-03 20:43:00,
2013-10-03 16:49:00,73.2,67.8,29.91,SW,235,10.0,13.0,83,0.00,,,0.00,meteohub,2013-10-03 20:49:00,
2013-10-03 16:54:00,73.2,67.8,29.90,SW,215,8.0,13.0,83,0.00,,,0.00,meteohub,2013-10-03 20:54:00,
2013-10-03 16:59:00,73.9,68.2,29.90,SSW,203,5.0,13.0,82,0.00,,,0.00,meteohub,2013-10-03 20:59:00,
2013-10-03 17:04:00,74.5,68.2,29.90,WSW,253,5.0,13.0,81,0.00,,,0.00,meteohub,2013-10-03 21:04:00,
2013-10-03 17:09:00,74.3,67.3,29.90,West,278,7.0,13.0,79,0.00,,,0.00,meteohub,2013-10-03 21:09:00,
2013-10-03 17:14:00,74.1,67.6,29.90,WSW,242,7.0,13.0,80,0.00,,,0.00,meteohub,2013-10-03 21:14:00,
2013-10-03 17:19:00,74.1,67.6,29.90,SW,228,7.0,13.0,80,0.00,,,0.00,meteohub,2013-10-03 21:19:00,
2013-10-03 17:24:00,74.8,67.8,29.90,WSW,245,6.0,13.0,79,0.00,,,0.00,meteohub,2013-10-03 21:24:00,
2013-10-03 17:30:00,75.0,67.6,29.90,SW,236,10.0,13.0,78,0.00,,,0.00,meteohub,2013-10-03 21:30:00,
2013-10-03 17:35:00,74.7,66.9,29.90,SW,224,11.0,12.0,77,0.00,,,0.00,meteohub,2013-10-03 21:35:00,
2013-10-03 17:40:00,74.5,67.1,29.90,SW,231,4.0,17.0,78,0.00,,,0.00,meteohub,2013-10-03 21:40:00,
2013-10-03 17:45:00,74.1,66.7,29.90,WSW,239,9.0,17.0,78,0.00,,,0.00,meteohub,2013-10-03 21:45:00,
2013-10-03 17:50:00,73.9,66.6,29.90,SW,223,7.0,17.0,78,0.00,,,0.00,meteohub,2013-10-03 21:50:00,
2013-10-03 17:55:00,73.9,67.1,29.90,SSW,203,8.0,12.0,79,0.00,,,0.00,meteohub,2013-10-03 21:55:00,
2013-10-03 18:00:00,73.8,66.9,29.89,SSW,203,5.0,14.0,79,0.00,,,0.00,meteohub,2013-10-03 22:00:00,
2013-10-03 18:06:00,73.6,67.1,29.89,SW,235,6.0,14.0,80,0.00,,,0.00,meteohub,2013-10-03 22:06:00,
2013-10-03 18:11:00,73.4,66.9,29.90,SW,229,4.0,13.0,80,0.00,,,0.00,meteohub,2013-10-03 22:11:00,
2013-10-03 18:16:00,73.4,66.9,29.90,WSW,238,8.0,9.0,80,0.00,,,0.00,meteohub,2013-10-03 22:16:00,
2013-10-03 18:21:00,73.2,66.7,29.90,SW,214,8.0,13.0,80,0.00,,,0.00,meteohub,2013-10-03 22:21:00,
2013-10-03 18:26:00,73.2,66.7,29.90,SW,225,5.0,13.0,80,0.00,,,0.00,meteohub,2013-10-03 22:26:00,
2013-10-03 18:31:00,73.6,66.7,29.90,South,172,8.0,13.0,79,0.00,,,0.00,meteohub,2013-10-03 22:31:00,
2013-10-03 18:36:00,73.8,66.9,29.90,SSW,203,9.0,12.0,79,0.00,,,0.00,meteohub,2013-10-03 22:36:00,
2013-10-03 18:41:00,73.6,66.7,29.90,SSW,211,3.0,11.0,79,0.00,,,0.00,meteohub,2013-10-03 22:41:00,
2013-10-03 18:47:00,73.4,66.9,29.90,SSW,194,6.0,13.0,80,0.00,,,0.00,meteohub,2013-10-03 22:47:00,
2013-10-03 18:52:00,73.2,66.7,29.90,SW,225,2.0,13.0,80,0.00,,,0.00,meteohub,2013-10-03 22:52:00,
2013-10-03 18:57:00,73.2,66.7,29.90,SSE,166,2.0,10.0,80,0.00,,,0.00,meteohub,2013-10-03 22:57:00,
2013-10-03 19:02:00,72.9,66.7,29.90,SSE,160,4.0,8.0,81,0.00,,,0.00,meteohub,2013-10-03 23:02:00,
2013-10-03 19:07:00,72.5,66.7,29.90,SSE,158,4.0,6.0,82,0.00,,,0.00,meteohub,2013-10-03 23:07:00,
2013-10-03 19:12:00,72.1,66.4,29.90,South,176,4.0,6.0,82,0.00,,,0.00,meteohub,2013-10-03 23:12:00,
2013-10-03 19:17:00,71.8,66.4,29.90,SSW,203,4.0,6.0,83,0.00,,,0.00,meteohub,2013-10-03 23:17:00,
2013-10-03 19:22:00,71.4,66.4,29.90,South,190,2.0,5.0,84,0.00,,,0.00,meteohub,2013-10-03 23:22:00,
2013-10-03 19:27:00,71.2,66.2,29.91,SSE,165,2.0,5.0,84,0.00,,,0.00,meteohub,2013-10-03 23:27:00,
2013-10-03 19:32:00,71.1,66.4,29.91,SE,135,2.0,5.0,85,0.00,,,0.00,meteohub,2013-10-03 23:32:00,
2013-10-03 19:37:00,70.9,66.2,29.91,SSE,165,4.0,5.0,85,0.00,,,0.00,meteohub,2013-10-03 23:37:00,
2013-10-03 19:42:00,70.5,66.2,29.91,SE,131,2.0,5.0,86,0.00,,,0.00,meteohub,2013-10-03 23:42:00,
2013-10-03 19:47:00,70.5,66.2,29.91,ESE,121,3.0,5.0,86,0.00,,,0.00,meteohub,2013-10-03 23:47:00,
2013-10-03 19:52:00,70.5,66.2,29.91,SE,132,4.0,6.0,86,0.00,,,0.00,meteohub,2013-10-03 23:52:00,
2013-10-03 19:57:00,70.5,66.2,29.91,SE,135,4.0,7.0,86,0.00,,,0.00,meteohub,2013-10-03 23:57:00,
2013-10-03 20:02:00,70.3,66.2,29.91,SSE,166,6.0,7.0,87,0.00,,,0.00,meteohub,2013-10-04 00:02:00,
2013-10-03 20:07:00,70.3,66.2,29.92,SE,146,4.0,6.0,87,0.00,,,0.00,meteohub,2013-10-04 00:07:00,
2013-10-03 20:12:00,70.3,66.2,29.91,ESE,113,3.0,6.0,87,0.00,,,0.00,meteohub,2013-10-04 00:12:00,
2013-10-03 20:17:00,70.3,66.2,29.91,SE,129,3.0,6.0,87,0.00,,,0.00,meteohub,2013-10-04 00:17:00,
2013-10-03 20:22:00,70.3,66.2,29.91,SE,127,3.0,6.0,87,0.00,,,0.00,meteohub,2013-10-04 00:22:00,
2013-10-03 20:27:00,70.3,66.2,29.91,SE,124,2.0,6.0,87,0.00,,,0.00,meteohub,2013-10-04 00:27:00,
2013-10-03 20:32:00,70.2,66.0,29.91,SE,135,3.0,6.0,87,0.00,,,0.00,meteohub,2013-10-04 00:32:00,
2013-10-03 20:37:00,70.0,66.2,29.91,ESE,108,3.0,5.0,88,0.00,,,0.00,meteohub,2013-10-04 00:37:00,
2013-10-03 20:42:00,69.6,65.8,29.91,ESE,122,3.0,5.0,88,0.00,,,0.00,meteohub,2013-10-04 00:42:00,
2013-10-03 20:47:00,69.3,65.8,29.91,SE,124,2.0,4.0,89,0.00,,,0.00,meteohub,2013-10-04 00:47:00,
2013-10-03 20:52:00,69.1,66.0,29.91,ESE,120,5.0,5.0,90,0.00,,,0.00,meteohub,2013-10-04 00:52:00,
2013-10-03 20:57:00,68.9,65.8,29.91,SE,128,5.0,6.0,90,0.00,,,0.00,meteohub,2013-10-04 00:57:00,
2013-10-03 21:02:00,68.7,65.7,29.91,SE,124,4.0,7.0,90,0.00,,,0.00,meteohub,2013-10-04 01:02:00,
2013-10-03 21:07:00,68.7,65.7,29.91,SE,124,4.0,7.0,90,0.00,,,0.00,meteohub,2013-10-04 01:07:00,
2013-10-03 21:13:00,69.1,66.0,29.91,SE,127,4.0,7.0,90,0.00,,,0.00,meteohub,2013-10-04 01:13:00,
2013-10-03 21:18:00,69.1,66.0,29.91,SE,134,4.0,8.0,90,0.00,,,0.00,meteohub,2013-10-04 01:18:00,
2013-10-03 21:23:00,69.1,66.0,29.92,ESE,116,5.0,8.0,90,0.00,,,0.00,meteohub,2013-10-04 01:23:00,
2013-10-03 21:28:00,69.1,66.4,29.92,SE,138,4.0,7.0,91,0.00,,,0.00,meteohub,2013-10-04 01:28:00,
2013-10-03 21:33:00,69.1,66.4,29.92,ESE,118,3.0,7.0,91,0.00,,,0.00,meteohub,2013-10-04 01:33:00,
2013-10-03 21:38:00,69.1,66.4,29.92,ESE,121,4.0,7.0,91,0.00,,,0.00,meteohub,2013-10-04 01:38:00,
2013-10-03 21:44:00,69.1,66.4,29.92,SE,126,4.0,6.0,91,0.00,,,0.00,meteohub,2013-10-04 01:44:00,
2013-10-03 21:49:00,69.1,66.4,29.91,ESE,107,4.0,6.0,91,0.00,,,0.00,meteohub,2013-10-04 01:49:00,
2013-10-03 21:54:00,69.1,66.4,29.91,ESE,123,5.0,6.0,91,0.00,,,0.00,meteohub,2013-10-04 01:54:00,
2013-10-03 21:59:00,69.1,66.4,29.91,SE,124,5.0,6.0,91,0.00,,,0.00,meteohub,2013-10-04 01:59:00,
2013-10-03 22:04:00,69.1,66.4,29.91,SE,124,4.0,6.0,91,0.00,,,0.00,meteohub,2013-10-04 02:04:00,
2013-10-03 22:09:00,69.1,66.7,29.91,ESE,113,4.0,6.0,92,0.00,,,0.00,meteohub,2013-10-04 02:09:00,
2013-10-03 22:14:00,69.1,66.7,29.91,ESE,110,3.0,6.0,92,0.00,,,0.00,meteohub,2013-10-04 02:14:00,
2013-10-03 22:20:00,69.1,66.7,29.91,SE,138,5.0,6.0,92,0.00,,,0.00,meteohub,2013-10-04 02:20:00,
2013-10-03 22:25:00,68.9,66.6,29.91,SE,131,3.0,6.0,92,0.00,,,0.00,meteohub,2013-10-04 02:25:00,
2013-10-03 22:30:00,69.1,66.7,29.91,ESE,116,5.0,6.0,92,0.00,,,0.00,meteohub,2013-10-04 02:30:00,
2013-10-03 22:35:00,69.3,66.9,29.91,SE,138,3.0,7.0,92,0.00,,,0.00,meteohub,2013-10-04 02:35:00,
2013-10-03 22:40:00,69.3,66.9,29.91,SE,129,3.0,7.0,92,0.00,,,0.00,meteohub,2013-10-04 02:40:00,
2013-10-03 22:45:00,69.3,66.6,29.91,SE,138,2.0,6.0,91,0.00,,,0.00,meteohub,2013-10-04 02:45:00,
2013-10-03 22:51:00,69.1,66.7,29.91,SE,127,4.0,5.0,92,0.00,,,0.00,meteohub,2013-10-04 02:51:00,
2013-10-03 22:56:00,69.3,66.9,29.91,ESE,118,4.0,5.0,92,0.00,,,0.00,meteohub,2013-10-04 02:56:00,
2013-10-03 23:01:00,69.3,66.9,29.91,SE,128,4.0,6.0,92,0.00,,,0.00,meteohub,2013-10-04 03:01:00,
2013-10-03 23:06:00,69.4,66.7,29.91,SE,125,7.0,7.0,91,0.00,,,0.00,meteohub,2013-10-04 03:06:00,
2013-10-03 23:11:00,69.6,66.9,29.91,SE,136,7.0,9.0,91,0.00,,,0.00,meteohub,2013-10-04 03:11:00,
2013-10-03 23:16:00,69.8,67.1,29.91,SE,146,4.0,9.0,91,0.00,,,0.00,meteohub,2013-10-04 03:16:00,
2013-10-03 23:21:00,70.0,66.9,29.91,SSE,153,4.0,9.0,90,0.00,,,0.00,meteohub,2013-10-04 03:21:00,
2013-10-03 23:27:00,70.0,66.9,29.91,SE,145,7.0,10.0,90,0.00,,,0.00,meteohub,2013-10-04 03:27:00,
2013-10-03 23:32:00,70.0,66.9,29.91,SSE,164,5.0,10.0,90,0.00,,,0.00,meteohub,2013-10-04 03:32:00,
2013-10-03 23:37:00,70.0,66.9,29.91,South,177,5.0,10.0,90,0.00,,,0.00,meteohub,2013-10-04 03:37:00,
2013-10-03 23:42:00,70.0,66.9,29.91,SSE,158,5.0,10.0,90,0.00,,,0.00,meteohub,2013-10-04 03:42:00,
2013-10-03 23:47:00,69.8,66.7,29.91,SSE,166,5.0,9.0,90,0.00,,,0.00,meteohub,2013-10-04 03:47:00,
2013-10-03 23:52:00,69.6,66.6,29.91,South,169,6.0,9.0,90,0.00,,,0.00,meteohub,2013-10-04 03:52:00,
2013-10-03 23:57:00,69.6,66.6,29.91,SSW,211,7.0,9.0,90,0.01,,,0.01,meteohub,2013-10-04 03:57:00,